www.pogodaiklimat.ru

Погода и климат >> Архив погоды >> Норвегия >> Федье


ПОГОДА в Федье

  • Прогноз погоды в Федье
  • Монитор погоды в Федье

АРХИВ ПОГОДЫ в Федье

Время (UTC), дата Ветер
(напр.,м/с)
 
Видим.   Явления Облачность Т
(С)
Тd
(С)
f
(%)
Тe
(С)
Тes
(С)
Комфортность P
(гПа)
Po
(гПа)
Тmin
(С)
Tmax
(С)
R
(мм)
R24
(мм)
S
(см)
01 10.06 Ю 8
{10}
н/о н/о +9.0 +8.1 94 +4 +4 1017.5 1015.2
02 10.06 Ю 6
{9}
н/о н/о +9.0 +8.1 94 +5 +5 1017.4 1015.1
03 10.06 ЮЗ 6
{10}
н/о н/о +9.2 +8.3 94 +5 +5 1017.4 1015.1
04 10.06 ЮЗ 7
{9}
н/о н/о +9.4 +7.7 89 +5 +5 1017.6 1015.3
05 10.06 ЮЗ 7
{9}
н/о н/о +10.1 +7.5 84 +6 +6 1017.7 1015.4
06 10.06 ЮЗ 7
{10}
н/о н/о +10.3 +7.0 80 +7 +7 1018.2 1015.9 +8.5 +10.4
07 10.06 ЮЗ 6
{9}
н/о н/о +10.5 +8.4 87 +7 +7 1018.5 1016.2
08 10.06 Ю 8
{9}
н/о н/о +10.6 +8.5 87 +7 +7 1019.0 1016.7
09 10.06 Ю 7
{10}
н/о н/о +10.6 +8.7 88 +7 +7 1019.4 1017.1
10 10.06 Ю 8
{10}
н/о н/о +10.6 +9.0 90 +7 +7 1019.6 1017.3
11 10.06 ЮЗ 8
{12}
н/о н/о +10.2 +9.0 92 +6 +6 1019.9 1017.6
12 10.06 Ю 6
{12}
н/о н/о +10.9 +7.4 79 +8 +8 1019.9 1017.6
13 10.06 Ю 5
{6}
н/о н/о +11.8 +9.0 83 +9 +9 1020.0 1017.7
14 10.06 Ю 5
{7}
н/о н/о +11.7 +9.3 85 +9 +9 1020.3 1018.0
15 10.06 ЮЗ 5
{6}
н/о н/о +11.8 +9.4 85 +9 +9 1020.3 1018.0
16 10.06 ЮЗ 4
{5}
н/о н/о +11.6 +8.8 83 +9 +9 1020.4 1018.1
17 10.06 ЮЗ 4
{5}
н/о н/о +12.1 +8.2 77 +10 +10 1020.6 1018.3
18 10.06 ЮЗ 3
{7}
н/о н/о +11.7 +7.6 76 +10 +10 1020.7 1018.4 +9.8 +12.2
19 10.06 ЮЗ 2
{3}
н/о н/о +11.6 +7.7 77 +11 +11 1020.9 1018.6
20 10.06 ЮЗ 2
{3}
н/о н/о +11.0 +7.9 81 +10 +10 1021.1 1018.8
21 10.06 ЮЗ 3
{3}
н/о н/о +10.5 +7.2 80 +8 +8 1021.6 1019.3
22 10.06 З 2
{3}
н/о н/о +10.4 +7.5 82 +9 +9 1021.7 1019.4
23 10.06 СЗ 1
{2}
н/о н/о +10.4 +7.5 82 +10 +10 1021.8 1019.5
00 11.06 С 1
{3}
н/о н/о +10.0 +7.8 86 +10 +10 1021.6 1019.3
01 11.06 СВ 2
{2}
н/о н/о +9.5 +7.5 87 +8 +8 1021.3 1019.0
02 11.06 СВ 2
{2}
н/о н/о +9.5 +7.5 87 +8 +8 1021.2 1018.9
03 11.06
{4}
н/о н/о +9.5 +7.3 86 1021.2 1018.9
04 11.06 С 3
{4}
н/о н/о +10.2 +7.8 85 +8 +8 1021.5 1019.2
05 11.06 С 3
{4}
н/о н/о +11.1 +7.6 79 +9 +9 1021.6 1019.3
06 11.06 С 5
{7}
н/о н/о +11.5 +8.4 81 +9 +9 1021.7 1019.4 +9.3 +11.8
07 11.06 С 7
{9}
н/о н/о +12.1 +8.4 78 +9 +9 1021.6 1019.3
08 11.06
{9}
н/о н/о +12.8 +8.7 76 1021.4 1019.1
09 11.06 С 6
{9}
н/о н/о +13.8 +8.6 71 +12 +12 1021.6 1019.3
10 11.06 С 5
{8}
н/о н/о +15.1 +8.8 66 +14 +14 1021.5 1019.2
11 11.06 С 7
{9}
н/о н/о +15.9 +8.4 61 +14 +14 1021.2 1018.9
12 11.06 С 7
{9}
н/о н/о +16.6 +8.1 57 +15 +15 1020.9 1018.6
13 11.06 С 7
{9}
н/о н/о +17.5 +9.2 58 +17 +17 1020.8 1018.5
14 11.06 С 7
{10}
н/о н/о +17.5 +8.4 55 +17 +17 1020.5 1018.2
15 11.06 С 8
{12}
н/о н/о +17.9 +7.9 52 +17 +17 1020.4 1018.1
16 11.06 С 8
{12}
н/о н/о +17.4 +9.1 58 +16 +16 1020.0 1017.7
17 11.06 С 8
{13}
н/о н/о +17.3 +9.0 58 +16 +16 1019.7 1017.4
18 11.06 С 9
{13}
н/о н/о +16.5 +9.2 62 +15 +15 1019.3 1017.0 +11.5 +18.2
19 11.06
{12}
н/о н/о +15.8 +9.5 66 1019.1 1016.8
20 11.06 С 8
{11}
н/о н/о +15.2 +9.6 69 +13 +13 1019.0 1016.7
21 11.06 С 6
{11}
н/о н/о +14.7 +9.7 72 +13 +13 1019.3 1017.0
22 11.06 С 6
{8}
н/о н/о +13.8 +9.7 76 +12 +12 1019.4 1017.1
23 11.06 СВ 5
{7}
н/о н/о +15.7 +8.5 62 +15 +15 1019.6 1017.3
00 12.06 СВ 5
{12}
н/о н/о +15.4 +7.7 60 +14 +14 1019.6 1017.3
01 12.06 н/о
02 12.06 СВ 6
{7}
н/о н/о +15.7 +8.2 61 +14 +14 1019.2 1016.9
03 12.06 В 4
{7}
н/о н/о +16.1 +6.8 54 +15 +15 1019.4 1017.1
04 12.06 В 4
{6}
н/о н/о +15.7 +7.7 59 +15 +15 1019.5 1017.2
05 12.06 В 4
{6}
н/о н/о +16.1 +7.3 56 +15 +15 1019.4 1017.1
06 12.06 В 5
{7}
н/о н/о +15.9 +6.9 55 +15 +15 1019.1 1016.8 +13.3 +16.8
07 12.06 В 4
{8}
н/о н/о +17.6 +6.5 48 +17 +17 1019.0 1016.7
08 12.06 н/о
09 12.06 ЮВ 6
{8}
н/о н/о +15.3 +9.0 66 +14 +14 1019.1 1016.8
10 12.06 В 5
{7}
н/о н/о +17.1 +7.5 53 +16 +16 1018.8 1016.5
11 12.06 В 4
{7}
н/о н/о +17.7 +7.5 51 +17 +17 1018.3 1016.0
12 12.06 В 3
{8}
н/о н/о +17.7 +6.0 46 +18 +18 1017.9 1015.6
13 12.06 ЮВ 1
{4}
н/о н/о +19.1 +8.2 49 +21 +21 комфорт 1017.0 1014.8
14 12.06 С 4
{7}
н/о н/о +18.4 +6.6 46 +19 +19 1016.4 1014.2
15 12.06 СЗ 7
{8}
н/о н/о +15.4 +10.0 70 +14 +14 1016.1 1013.8
16 12.06 СЗ 6
{8}
н/о н/о +16.0 +9.9 67 +15 +15 1015.4 1013.1
17 12.06 С 5
{7}
н/о н/о +17.9 +9.3 57 +18 +18 1014.6 1012.4
18 12.06 С 6
{9}
н/о н/о +15.8 +9.5 66 +14 +14 1014.1 1011.8 +14.9 +19.1
19 12.06 С 5
{8}
н/о н/о +16.6 +9.1 61 +16 +16 1013.4 1011.1
20 12.06 С 8
{10}
н/о н/о +14.2 +9.8 75 +12 +12 1012.6 1010.3
21 12.06
{9}
н/о н/о +13.7 +9.8 77 1012.4 1010.1
22 12.06 С 7
{9}
н/о н/о +12.3 +10.0 86 +9 +9 1011.8 1009.5
23 12.06 С 4
{8}
н/о н/о +12.6 +10.3 86 +11 +11 1011.0 1008.7
00 13.06 СВ 4
{10}
н/о н/о +13.1 +9.6 79 +11 +11 1010.0 1007.7
01 13.06 СВ 4
{5}
н/о н/о +12.8 +10.0 83 +11 +11 1008.9 1006.6
02 13.06 С 3
{5}
н/о н/о +13.1 +9.2 77 +12 +12 1007.4 1005.1
03 13.06
{7}
н/о н/о +13.1 +9.2 77 1006.0 1003.7
04 13.06 С 2
{6}
н/о н/о +12.9 +9.7 81 +12 +12 1005.5 1003.2
05 13.06 ЮВ 2
{3}
н/о н/о +12.3 +10.4 88 +11 +11 1004.9 1002.6
06 13.06 Ю 2
{7}
н/о н/о +11.7 +10.8 94 +10 +10 1005.0 1002.7 +11.7 +16.8
07 13.06 ЮВ 6
{7}
н/о н/о +11.7 +10.9 95 +9 +9 1005.2 1002.9
08 13.06 Ю 6
{7}
н/о н/о +11.6 +10.8 95 +9 +9 1005.6 1003.3
09 13.06 Ю 4
{6}
н/о н/о +12.0 +11.1 94 +10 +10 1005.3 1003.0
10 13.06 Ю 3
{5}
н/о н/о +12.2 +11.3 94 +11 +11 1005.4 1003.1
11 13.06 Ю 3
{4}
н/о н/о +12.4 +11.5 94 +11 +11 1005.8 1003.5
12 13.06 Ю 6
{7}
н/о н/о +12.6 +12.0 96 +10 +10 1006.3 1004.0
13 13.06 ЮВ 6
{7}
н/о н/о +12.5 +12.0 97 +10 +10 1006.9 1004.6
14 13.06 Ю 11
{14}
н/о н/о +12.8 +10.2 84 +9 +9 1007.6 1005.3
15 13.06 Ю 9
{14}
н/о н/о +13.2 +9.8 80 +10 +10 1008.0 1005.7
16 13.06 Ю 9
{14}
н/о н/о +13.7 +10.1 79 +11 +11 1008.3 1006.0
17 13.06 Ю 8
{13}
н/о н/о +13.8 +9.9 77 +11 +11 1008.5 1006.2
18 13.06 Ю 7
{14}
н/о н/о +14.0 +9.5 74 +12 +12 1009.0 1006.7 +11.4 +14.2
19 13.06 Ю 8
{9}
н/о н/о +14.1 +8.9 71 +12 +12 1009.3 1007.0
20 13.06 Ю 5
{8}
н/о н/о +13.2 +9.3 77 +11 +11 1010.0 1007.7
21 13.06 Ю 5
{8}
н/о н/о +12.7 +10.3 85 +10 +10 1010.9 1008.6
22 13.06 Ю 6
{7}
н/о н/о +12.7 +10.6 87 +10 +10 1011.5 1009.2
23 13.06 н/о
00 14.06 В 4
{9}
н/о н/о +12.7 +10.9 89 +11 +11 1012.1 1009.8
01 14.06 В 5
{7}
н/о н/о +12.6 +10.7 88 +10 +10 1012.4 1010.1
02 14.06 СВ 4
{6}
н/о н/о +12.8 +10.7 87 +11 +11 1012.5 1010.2
03 14.06 СВ 4
{6}
н/о н/о +12.6 +11.2 91 +11 +11 1012.8 1010.5
04 14.06 В 4
{6}
н/о н/о +13.1 +11.0 87 +11 +11 1012.8 1010.5
05 14.06 В 4
{6}
н/о н/о +13.5 +10.9 84 +12 +12 1013.0 1010.7
06 14.06 ЮВ 5
{7}
н/о н/о +14.5 +8.7 68 +13 +13 1013.4 1011.1 +12.3 +14.5
07 14.06 В 4
{6}
н/о н/о +15.7 +8.7 63 +15 +15 1013.7 1011.4
08 14.06 В 8
{12}
н/о н/о +15.7 +8.0 60 +14 +14 1013.7 1011.4
09 14.06 В 4
{10}
н/о н/о +15.9 +9.1 64 +15 +15 1013.9 1011.6
10 14.06 В 5
{8}
н/о н/о +17.7 +7.2 50 +17 +17 1014.1 1011.9
11 14.06 ЮВ 4
{6}
н/о н/о +15.9 +9.6 66 +15 +15 1014.6 1012.3
12 14.06 Ю 4
{12}
н/о н/о +14.0 +10.4 79 +13 +13 1015.5 1013.2
13 14.06 Ю 6
{7}
н/о н/о +14.1 +10.7 80 +12 +12 1015.7 1013.4
14 14.06 Ю 3
{6}
н/о н/о +15.3 +10.5 73 +15 +15 1016.1 1013.8
15 14.06 Ю 4
{5}
н/о н/о +13.6 +10.6 82 +12 +12 1016.2 1013.9
16 14.06 Ю 6
{7}
н/о н/о +13.6 +10.6 82 +11 +11 1016.1 1013.8
17 14.06 Ю 4
{7}
н/о н/о +13.8 +10.4 80 +12 +12 1016.5 1014.2
18 14.06 Ю 6
{8}
н/о н/о +13.7 +10.5 81 +12 +12 1016.7 1014.4 +13.2 +17.7
19 14.06 Ю 3
{7}
н/о н/о +13.1 +10.8 86 +12 +12 1017.1 1014.8
20 14.06 ЮВ 3
{5}
н/о н/о +12.8 +10.9 88 +11 +11 1017.5 1015.2
21 14.06 В 2
{4}
н/о н/о +13.3 +10.7 84 +13 +13 1017.8 1015.5
22 14.06 Ю 2
{4}
н/о н/о +13.4 +10.8 84 +13 +13 1018.4 1016.1
23 14.06 Ю 6
{8}
н/о н/о +13.4 +10.6 83 +11 +11 1018.7 1016.4
00 15.06 Ю 5
{8}
н/о н/о +13.3 +10.5 83 +11 +11 1018.7 1016.4
01 15.06 ЮВ 2
{6}
н/о н/о +12.8 +10.2 84 +12 +12 1018.6 1016.3
02 15.06 В 4
{4}
н/о н/о +12.2 +10.3 88 +10 +10 1018.7 1016.4
03 15.06 В 4
{4}
н/о н/о +12.1 +10.5 90 +10 +10 1018.6 1016.3
04 15.06 СВ 2
{4}
н/о н/о +12.6 +11.0 90 +12 +12 1018.5 1016.2
05 15.06 В 3
{4}
н/о н/о +13.9 +11.1 83 +13 +13 1018.4 1016.1
06 15.06 СВ 4
{6}
н/о н/о +14.6 +11.2 80 +13 +13 1018.2 1015.9 +11.8 +14.7
07 15.06 СВ 4
{6}
н/о н/о +15.4 +11.6 78 +14 +14 1018.0 1015.7
08 15.06 СВ 3
{5}
н/о н/о +17.3 +11.6 69 +17 +17 1018.0 1015.7
09 15.06 С 4
{5}
н/о н/о +18.2 +10.6 61 +18 +18 1017.7 1015.4
10 15.06 С 5
{6}
н/о н/о +18.9 +10.2 57 +19 +19 1017.2 1015.0
11 15.06 С 5
{7}
н/о н/о +19.0 +11.8 63 +20 +20 1016.6 1014.4
12 15.06 С 6
{8}
н/о н/о +19.2 +11.3 60 +20 +20 1016.1 1013.9
13 15.06 С 5
{8}
н/о н/о +19.3 +11.1 59 +20 +20 1015.6 1013.4
14 15.06 С 6
{8}
н/о н/о +19.5 +11.0 58 +20 +20 1015.1 1012.9
15 15.06 С 6
{8}
н/о н/о +19.9 +10.3 54 +21 +21 комфорт 1014.8 1012.6
16 15.06 С 6
{9}
н/о н/о +19.8 +9.4 51 +21 +21 комфорт 1014.1 1011.9
17 15.06 С 7
{10}
н/о н/о +18.6 +9.7 56 +18 +18 1013.1 1010.9
18 15.06 С 7
{10}
н/о н/о +17.9 +10.5 62 +17 +17 1012.5 1010.3 +14.6 +20.4
19 15.06 С 7
{10}
н/о н/о +18.2 +10.1 59 +18 +18 1012.0 1009.8
20 15.06 С 6
{10}
н/о н/о +17.4 +10.5 64 +17 +17 1011.8 1009.6
21 15.06 Ю 11
{16}
н/о н/о +16.4 +12.0 75 +14 +14 1013.9 1011.6
22 15.06 СЗ 2
{14}
н/о н/о +14.2 +12.1 87 +14 +14 1013.1 1010.8
23 15.06 В 3 н/о н/о +14.4 +13.0 91 +13 +13 1012.6 1010.3
00 16.06 В 4
{16}
н/о н/о +15.1 +13.5 90 +14 +14 1012.1 1009.8
01 16.06 В 5
{5}
н/о н/о +14.9 +13.3 90 +13 +13 1011.8 1009.5
02 16.06 В 2
{5}
н/о н/о +14.9 +13.3 90 +15 +15 1011.5 1009.2
03 16.06 ЮВ 1
{7}
н/о н/о +14.6 +13.3 92 +15 +15 1011.1 1008.8
04 16.06 СВ 2
{3}
н/о н/о +14.4 +13.6 95 +14 +14 1010.7 1008.4
05 16.06 СВ 4
{5}
н/о н/о +14.2 +13.4 95 +13 +13 1010.5 1008.2
06 16.06 В 3
{7}
н/о н/о +14.5 +13.9 96 +13 +13 1010.8 1008.5 +13.9 +18.3
07 16.06 Ю 10
{13}
н/о н/о +13.1 +12.3 95 +10 +10 1011.5 1009.2
08 16.06 Ю 11
{14}
н/о н/о +12.6 +11.8 95 +9 +9 1012.1 1009.8
09 16.06 Ю 10
{13}
н/о н/о +12.3 +11.4 94 +9 +9 1012.9 1010.6
10 16.06 Ю 8
{12}
н/о н/о +12.5 +11.2 92 +9 +9 1013.3 1011.0
11 16.06 Ю 7
{10}
н/о н/о +12.5 +11.1 91 +10 +10 1013.7 1011.4
12 16.06 Ю 7
{14}
н/о н/о +13.1 +10.5 84 +10 +10 1013.7 1011.4
13 16.06 Ю 7
{9}
н/о н/о +13.5 +10.7 83 +11 +11 1013.9 1011.6
14 16.06 Ю 7
{9}
н/о н/о +13.6 +11.0 84 +11 +11 1013.9 1011.6
15 16.06 Ю 7
{9}
н/о н/о +14.2 +10.8 80 +12 +12 1013.9 1011.6
16 16.06 ЮЗ 11
{13}
н/о н/о +12.4 +10.5 88 +9 +9 1014.1 1011.8
17 16.06 Ю 9
{12}
н/о н/о +12.6 +11.0 90 +9 +9 1014.3 1012.0
18 16.06 Ю 9
{13}
н/о н/о +12.5 +10.6 88 +9 +9 1014.7 1012.4 +12.1 +14.5
19 16.06 Ю 8
{11}
н/о н/о +12.9 +10.6 86 +10 +10 1015.0 1012.7
20 16.06 Ю 7
{10}
н/о н/о +12.3 +10.7 90 +9 +9 1015.3 1013.0
21 16.06 Ю 7
{9}
н/о н/о +12.1 +9.8 86 +9 +9 1015.4 1013.1
22 16.06 Ю 7
{10}
н/о н/о +11.8 +9.7 87 +9 +9 1015.4 1013.1
23 16.06 Ю 7
{9}
н/о н/о +11.7 +9.8 88 +8 +8 1015.4 1013.1
00 17.06 ЮВ 6
{11}
н/о н/о +11.5 +9.8 89 +8 +8 1015.4 1013.1

 

Местоположение метеостанции Федье (Норвегия): широта 60.78 долгота 4.72 высота над уровнем моря 19 м.

В архиве по умолчанию представлена погода в Федье за последнюю неделю. Архивные данные за месяц целиком и за предыдущие месяцы, начиная с января 2011 года, Вы можете получить, выбрав интересующий диапазон дат из раскрывающегося списка и нажав кнопку "Ввод!".


*Определитесь, кто Вы:
робот инопланетянин человек

Внимание! Время в таблицах - всемирное. Для получения местного времени необходимо прибавить поправку, которая равна 1 ч.

Смотрите также архив погоды в соседних городах и на ближайших метеорологических станциях:

Погода в Такле (Норвегия) (45 км)
Погода в Бергене (Норвегия) (56 км)
Погода в Фурунесете (Норвегия) (59 км)
Погода в Фоссмарке (Норвегия) (62 км)
Погода в Модалене (Норвегия) (68 км)
Погода в Эванжере (Норвегия) (77 км)
Погода в Квамскогене (Норвегия) (82 км)
Погода в Булкене (Норвегия) (83 км)
Погода на Маяке Ytteroyane (Норвегия) (88 км)
Погода во Флурё аэропорту (Норвегия) (88 км)

Пояснения к столбцам:

Ветер - указаны скорость ветра в м/с - средняя за 10 мин, порывы в срок и между сроками (в фигурных скобках) и направление, откуда дует ветер: С - северный, СВ - северо-восточный, В - восточный, ЮВ - юго-восточный, Ю - южный, ЮЗ - юго-западный, З - западный, СЗ - северо-западный.
Видимость - горизонтальная дальность видимости в метрах или километрах. При видимости от 1 до 10 км при отсутствии осадков обычно наблюдается дымка, при ухудшении видимости до 1 км и менее - туман. В сухую погоду видимость может ухудшаться дымом, пылью или мглою.
Явления - указаны атмосферные явления, наблюдавшиеся в срок или в последний час перед сроком; фигурными скобками обозначены явления, наблюдавшиеся между сроками (за 1-3 часа до срока); квадратными скобками обозначены град или гололедные отложения с указанием их диаметра в мм.
Облачность - указаны через наклонную черту общая и нижняя облачность в баллах и высота нижней границы облаков в метрах; квадратными скобками обозначены формы облаков: Ci - перистые, Cs - перисто-слоистые, Cc - перисто-кучевые, Ac - высококучевые, As - высокослоистые, Sc - слоисто-кучевые, Ns - слоисто-дождевые, Cu - кучевые, Cb - кучево-дождевые. Подробнее классификацию облаков см. в Атласе облаков (PDF).
T - Температура воздуха - температура, измеренная на высоте 2 м над землей.
Td - Температура точки росы - температура, при понижении до которой содержащийся в воздухе водяной пар достигнет насыщения.
f - Относительная влажность воздуха - влажноcть воздуха, измеренная на высоте 2 м над землей.
Te - Эффективная температура - температура, которую ощущает одетый по сезону человек в тени. Характеристика душности погоды. При расчете учитывается влияние влажности воздуха и скорости ветра на теплоощущения человека.
Tes - Эффективная температура на солнце - температура, которую ощущает человек, с поправкой на солнечный нагрев. Характеристика знойности погоды. Зависит от высоты солнца над горизонтом, облачности и скорости ветра. Ночью, в пасмурную погоду, а также при ветре 12 м/с и более поправка равна нулю.
P - Атмосферное давление - приведенное к уровню моря атмосферное давление.
Po - Атмосферное давление - измеренное на уровне метеостанции атмосферное давление.
Tmin - Минимальная температура - минимум температуры воздуха на высоте 2 м над землей.
Tmax - Максимальная температура - максимум температуры воздуха на высоте 2 м над землей.
R - Количество осадков - Количество выпавших осадков за период времени, мм. При наведении курсора мыши на число - период времени, за который выпало указанное количество осадков.
R24 - Количество осадков - Количество выпавших осадков за 24 часа, мм.
S - Снежный покров - Высота снежного покрова, см. При наведении курсора мыши на число - состояние снежного покрова и степень покрытия местности в баллах.